Jaipur, India

9:16 AM IST on September 27, 2016 (GMT +0530)
Jaipur

Weather History for VIJP - March, 2013

Change the Weather History Date:

Thursday, March 28, 2013

  Actual Average Record
Temperature  
Mean Temperature 82 °F -  
Max Temperature 94 °F - - ()
Min Temperature 69 °F - - ()
Cooling Degree Days 16    
Growing Degree Days 32 (Base 50)    
Moisture  
Dew Point 48 °F    
Average Humidity 33    
Maximum Humidity 73    
Minimum Humidity 12    
Precipitation  
Precipitation 0.12 in - - ()
Sea Level Pressure  
Sea Level Pressure 29.82 in    
Wind  
Wind Speed 6 mph ()    
Max Wind Speed 69 mph    
Max Gust Speed -    
Visibility 2.1 miles    
Events Rain , Thunderstorm    
T = Trace of Precipitation, MM = Missing Value Source: Averaged Metar Reports

Daily Weather History Graph

Daily Weather History Graph

Search for Another Location

Airport or City:

Trip Planner

Search our weather history database for the weather conditions in past years. The results will help you decide how hot, cold, wet, or windy it might be!

Date:

Astronomy

Mar. 28, 2013 Rise Set
Actual Time 6:22 AM IST 6:41 PM IST
Civil Twilight 5:58 AM IST 7:05 PM IST
Nautical Twilight 5:31 AM IST 7:32 PM IST
Astronomical Twilight 5:04 AM IST 7:59 PM IST
Moon 7:50 PM IST (3/28) 6:40 AM IST (3/28)
Length of Visible Light 13h 06m
Length of Day
12h 19m
Full, 99% of the Moon is Illuminated
Mar 28
Full
Apr 3
Last Quarter
Apr 10
New
Apr 18
First Quarter
Apr 26
Full

Hourly Weather History & Observations

Time (IST) Temp. Dew Point Humidity Pressure Visibility Wind Dir Wind Speed Gust Speed Precip Events Conditions
12:00 AM 75.2 °F 46.4 °F 36% 29.86 in 1.9 mi East 5.8 mph - N/A   Haze
2:00 AM 75.2 °F 44.6 °F 34% 29.83 in 1.9 mi ENE 8.1 mph - N/A   Haze
2:30 AM 76 °F 45 °F 22% 29.77 in 2 mi East 5.8 mph - -   Haze
3:00 AM 75.2 °F 44.6 °F 34% 29.83 in 1.9 mi Calm Calm - N/A   Haze
4:00 AM 73.4 °F 44.6 °F 36% 29.83 in 1.9 mi Calm Calm - N/A   Haze
5:00 AM 69.8 °F 44.6 °F 40% 29.83 in 1.9 mi Calm Calm - N/A   Haze
5:30 AM 72 °F 44 °F 26% 29.78 in 1 mi East 2.3 mph - -   Haze
6:00 AM 71.6 °F 44.6 °F 38% 29.83 in 1.9 mi East 5.8 mph - N/A   Haze
8:00 AM 77.0 °F 46.4 °F 34% 29.86 in 1.9 mi East 6.9 mph - N/A   Haze
8:30 AM 78 °F 49 °F 26% 29.79 in 2 mi East 6.9 mph - -   Haze
9:00 AM 78.8 °F 48.2 °F 34% 29.86 in 2.5 mi ESE 8.1 mph - N/A   Haze
10:00 AM 80.6 °F 51.8 °F 37% 29.89 in 2.5 mi South 8.1 mph - N/A   Haze
11:30 AM 87 °F 51 °F 19% 29.80 in 2 mi WSW 8.1 mph - -   Haze
12:00 PM 86.0 °F 48.2 °F 27% 29.89 in 3.1 mi WSW 8.1 mph - N/A   Haze
1:00 PM 89.6 °F 46.4 °F 22% 29.86 in 3.1 mi WSW 10.4 mph - N/A   Haze
2:00 PM 91.4 °F 44.6 °F 20% 29.83 in 3.1 mi West 11.5 mph - N/A   Haze
3:00 PM 91.4 °F 41.0 °F 17% 29.80 in 3.1 mi West 11.5 mph - N/A   Haze
4:00 PM 91.4 °F 42.8 °F 18% 29.77 in 3.1 mi Variable 9.2 mph - N/A   Haze
5:00 PM 91.4 °F 42.8 °F 18% 29.77 in 3.1 mi WNW 10.4 mph - N/A   Haze
5:30 PM 90 °F 44 °F 12% 29.69 in 2 mi WNW 6.9 mph - -   Haze
6:00 PM 87.8 °F 42.8 °F 21% 29.77 in 1.9 mi Variable 4.6 mph - N/A   Haze
8:30 PM 80 °F 54 °F 30% 29.75 in 1 mi 2.3 mph - - Thunderstorm Thunderstorm
9:30 PM 75.2 °F 60.8 °F 61% 29.86 in 1.2 mi Variable 5.8 mph - N/A Rain , Thunderstorm Light Thunderstorms and Rain
10:00 PM 71.6 °F 62.6 °F 73% 29.86 in 1.2 mi Calm Calm - N/A   Haze
11:00 PM 73.4 °F 59.0 °F 61% 29.86 in 1.2 mi East 69.0 mph - N/A   Haze
11:30 PM 73 °F 61 °F 56% 29.82 in 1 mi East 3.5 mph - - Thunderstorm Thunderstorm